This is the latest recevied weather packets stored in our database for station/object KF6ILA. If no packets are shown the sender has not sent any weather packets the latest 10 day(s).
| Time | Temp. | Humidity | Pressure | Rain* | Wind** | Luminosity | Snow |
|---|---|---|---|---|---|---|---|
| 1787895540 | 26.11° C | 34% | 1016.4 hPa | 0 mm | - | 0 W/m² | - |
| 1787895243 | 26.11° C | 34% | 1016.4 hPa | 0 mm | - | 0 W/m² | - |
| 1787894649 | 26.11° C | 33% | 1016.5 hPa | 0 mm | - | 0 W/m² | - |
| 1787894352 | 26.11° C | 33% | 1016.6 hPa | 0 mm | - | 0 W/m² | - |
| 1787894055 | 26.11° C | 33% | 1016.5 hPa | 0 mm | - | 0 W/m² | - |
| 1787893758 | 26.11° C | 33% | 1016.4 hPa | 0 mm | - | 0 W/m² | - |
| 1787893461 | 26.11° C | 33% | 1016.4 hPa | 0 mm | - | 0 W/m² | - |
| 1787893164 | 26.11° C | 34% | 1016.4 hPa | 0 mm | - | 0 W/m² | - |
| 1787892570 | 26.11° C | 34% | 1016.5 hPa | 0 mm | - | 0 W/m² | - |
| 1787891976 | 26.67° C | 35% | 1016.3 hPa | 0 mm | - | 0 W/m² | - |
| 1787891679 | 26.67° C | 36% | 1016.3 hPa | 0 mm | - | 0 W/m² | - |
| 1787891085 | 26.67° C | 36% | 1016.2 hPa | 0 mm | - | 0 W/m² | - |
| 1787890788 | 26.11° C | 38% | 1016.1 hPa | 0 mm | - | 0 W/m² | - |
| 1787890491 | 26.11° C | 40% | 1016 hPa | 0 mm | - | 0 W/m² | - |
| 1787889897 | 26.11° C | 44% | 1016.8 hPa | 0 mm | - | 0 W/m² | - |
| 1787889600 | 25.56° C | 46% | 1016.7 hPa | 0 mm | - | 0 W/m² | - |
| 1787889303 | 25.56° C | 48% | 1016.6 hPa | 0 mm | - | 0 W/m² | - |
| 1787888412 | 25.56° C | 50% | 1016.6 hPa | 0 mm | - | 0 W/m² | - |
| 1787888115 | 25.56° C | 50% | 1016.5 hPa | 0 mm | - | 0 W/m² | - |
| 1787887521 | 25.56° C | 52% | 1016.3 hPa | 0 mm | - | 0 W/m² | - |
| 1787886630 | 25.56° C | 55% | 1015.9 hPa | 0 mm | - | 0 W/m² | - |
| 1787886333 | 25.56° C | 56% | 1015.9 hPa | 0 mm | - | 0 W/m² | - |
| 1787885739 | 25.56° C | 55% | 1015.7 hPa | 0 mm | - | 0 W/m² | - |
| 1787885442 | 25.56° C | 55% | 1015.7 hPa | 0 mm | - | 0 W/m² | - |
| 1787885145 | 26.11° C | 55% | 1015.6 hPa | 0 mm | - | 0 W/m² | - |
* Rain latest hour (hover to see other rain measurements)
** Current wind speed in m/s (hover to see current wind gust speed)